sat.trackr.live / text

‹ back to catalog

STARLINK-34872

NORAD 65296 · 2025-184Z

PAYLOAD ACTIVE UNKNOWN

§ Identity

Operator
Country
US
Launch date
2025-08-22
Launch site
AFWTR
Launch vehicle
Mass (kg)
RCS (m²)

Purposes: comms

External: N2YO · Heavens-Above · Gunter

§ Orbital elements

Epoch: 2026-05-25T02:16:11.309376Z

Period
95.64 min
Inclination
97.4514°
Eccentricity
0.0000856
Mean motion
15.05631968 rev/d
Perigee alt
549.0 km
Apogee alt
550.2 km
Semi-major
6,927.7 km
B*
-6.5566e-4
RAAN
197.5457°
Arg perigee
224.4637°
Mean anomaly
135.6521°
Rev number
4,279

§ Raw data

STARLINK-348721 65296U 25184Z   26145.09457534 -.00009501  00000+0 -65566-3 0  99902 65296  97.4514 197.5457 0000856 224.4637 135.6521 15.05631968 42794

JSON: /api/v1/satellites/65296 · /tle

For live sub-satellite position, see the globe view (requires WebGL).

§ Visibility from observer

Set your observer location to see the next 7 days of passes ≥ 10°. The values pass through the URL so the page stays shareable.

No JS? Fill the form by hand. The geolocation button needs JavaScript.